GENESIS 2

Last updated on Tue Jul 01 2025 00:02:15 GMT+0000 (Coordinated Universal Time)

1 31789U 07028A 25181.59181094 .00105004 00000+0 48135-3 0 9992 2 31789 64.4742 341.9799 0023992 301.0542 58.8257 15.82708842996238
UTC large
Height (km)
Speed (km/s)
/
Latitude / Longitude
Inclination (degrees)
Orbital Period (minutes)
Azimuth
Elevation
Range (km)
Doppler Factor

Next 0 passes for location: London (51.5072 / 0.1276)

Sorry there are no passes over London.